Miscellaneous Local Product
Issued by NWS Hastings, NE

Home | Current Version | Previous Version | Graphics & Text | Print | Product List | Glossary On
Versions: 1 2 3 4 5 6 7 8 9 10 11 12 13 14 15 16 17 18 19 20 21 22 23 24 25 26 27 28 29 30 31 32 33 34 35 36 37 38 39 40 41 42 43 44 45 46 47 48 49 50
000
AXUS43 KGID 010302
MISGRI

GID CWA HOURLY WEATHER ROUNDUP
NATIONAL WEATHER SERVICE HASTINGS NE
900 PM CST TUE FEB 28 2017

NOTE: "FAIR" INDICATES FEW OR NO CLOUDS BELOW 12,000 FEET WITH NO
SIGNIFICANT WEATHER AND/OR OBSTRUCTIONS TO VISIBILITY.

...SOUTH CENTRAL NEBRASKA...

CITY           SKY/WX    TMP DP  RH WIND       PRES   REMARKS
GRAND ISLAND   CLOUDY    37  32  82 NW6       29.79S WCI  32
HASTINGS       CLOUDY    38  29  70 N7        29.79F WCI  33
KEARNEY        CLOUDY    37  19  48 NW13      29.80R WCI  29
ORD            CLOUDY    35  23  61 NW14      29.79R WCI  26
YORK           MIX PCPN  37  32  81 NW21      29.79R WCI  27
AURORA         CLOUDY    35  33  92 N6        29.79S WCI  30
LEXINGTON      CLOUDY    36  17  47 NW15      29.82R WCI  26
HOLDREGE       CLOUDY    37  17  43 NW16G25   29.81R WCI  28
HEBRON         CLOUDY    42  33  70 N9        29.79R

...NEBRASKA PANHANDLE...

CITY           SKY/WX    TMP DP  RH WIND       PRES   REMARKS
CHADRON        CLEAR     20  10  65 CALM      29.84R
ALLIANCE       CLEAR     19  10  68 W17       29.82R WCI   4
SCOTTSBLUFF    CLEAR     24  12  60 W13       29.87R WCI  12
SIDNEY         CLEAR     28  11  48 W24       29.86R WCI  14

...WESTERN AND NORTH CENTRAL NEBRASKA...

CITY           SKY/WX    TMP DP  RH WIND       PRES   REMARKS
VALENTINE      CLOUDY    29  23  78 N8        29.82S WCI  21
AINSWORTH      CLOUDY    31  28  88 NW14      29.81S WCI  21
ONEILL         CLOUDY    32  30  92 NW12      29.80R WCI  23
BROKEN BOW     CLOUDY    34  25  69 NW13      29.80R WCI  25
IMPERIAL       CLEAR     32  12  43 NW14      29.88R WCI  22
NORTH PLATTE   MOCLDY    32  17  54 W9        29.84R WCI  24
MCCOOK         CLOUDY    35  13  40 NW12      29.85R WCI  27

...EASTERN NEBRASKA...

CITY           SKY/WX    TMP DP  RH WIND       PRES   REMARKS
NORFOLK        CLOUDY    34  29  82 NW9       29.77R WCI  27
SO SIOUX CITY  CLOUDY    38  33  82 N8        29.74R WCI  32
TEKAMAH        CLOUDY    37  33  85 NW14      29.74R WCI  28
COLUMBUS       CLOUDY    36  30  80 NW8       29.79R WCI  29
ALBION         CLOUDY    37  32  84 N6        29.77S WCI  32
OMAHA EPPLEY   LGT RAIN  38  34  85 NW13      29.73R WCI  30
OFFUTT AFB     LGT RAIN  39  35  87 NW10      29.72R WCI  32
MILLARD        CLOUDY    40  37  87 NW12      29.74R WCI  33
LINCOLN        CLOUDY    40  32  73 NW17      29.80R WCI  31
NEBRASKA CITY  RAIN      39  34  82 N14       29.73R WCI  30
BEATRICE       CLOUDY    40  34  78 NW13G20   29.79R WCI  33
FALLS CITY     CLOUDY    42  36  79 NW15      29.69R

...NORTHERN KANSAS...

CITY           SKY/WX    TMP DP  RH WIND       PRES   REMARKS
GOODLAND       CLOUDY    29  24  82 W12       29.88R WCI  19
HILL CITY      CLOUDY    39  25  57 NW13      29.84S WCI  31
NORTON         MOCLDY    37   7  28 W16G23    29.82R WCI  28
PHILLIPSBURG   CLOUDY    43  19  39 NW10      29.82S
SMITH CENTER   CLOUDY    39  25  56 NW12      29.81F WCI  32
HAYS           CLOUDY    40  25  55 N23G37    29.82R WCI  30
RUSSELL        CLOUDY    42  27  55 N22G30    29.81R
CONCORDIA      CLOUDY    44  34  67 N12       29.78R
SALINA         LGT RAIN  46  38  73 N28G37    29.78R
TOPEKA         CLOUDY    50  41  71 NW18G25   29.67R



USA.gov is the U.S. government's official web portal to all federal, state and local government web resources and services.